Location: Kellogg
(38.0159°N, 90.0546°W)
Time: 14:50:16
(UTC+00:00)

Courier 1B - Pass Details

Date: 11 September 2024
Orbit: 962 x 1208 km, 28.3° (Epoch: 07 October)

Event Time Altitude Azimuth Distance (km) Brightness Sun altitude
Rises 20:05:16 0° 215° (SW) 3,914 11.4 45.2°
Reaches altitude 10° 20:08:47 10° 200° (SSW) 3,002 10.9 44.7°
Maximum altitude 20:13:57 20° 155° (SSE) 2,379 9.9 43.9°
Drops below altitude 10° 20:19:16 10° 111° (ESE) 3,108 10.0 43.0°
Sets 20:22:59 0° 96° (E) 4,095 10.4 42.5°
